Regional Weather Roundup
Issued by NWS

Home | Current Version | Previous Version | Graphics & Text | Print | Product List | Glossary On
Versions: 1 2 3 4 5 6 7 8 9 10 11 12 13 14 15 16 17 18 19 20 21 22 23 24 25 26 27 28 29 30 31 32 33 34 35 36 37 38 39 40 41 42 43 44 45 46 47 48 49 50
555
ASUS44 KMEG 250010
RWRTN
TENNESSEE HOURLY STATE WEATHER ROUNDUP
NATIONAL WEATHER SERVICE MEMPHIS TN
700 PM CDT TUE MAY 24 2016

TNZ002-004-019-021-049-052-054-088>092-250100-
WEST TENNESSEE

CITY           SKY/WX    TMP DP  RH WIND       PRES   REMARKS
MEMPHIS INTL   CLOUDY    85  64  49 S8        30.03R
NWS MEMPHIS      N/A     83 N/A N/A MISG        N/A
JACKSON        CLOUDY    80  67  64 CALM      30.05S
DYERSBURG      CLOUDY    72  66  83 NW3       30.06S
UNION CITY     SUNNY     72  66  83 N5        30.05F
PARIS          MOSUNNY   77  61  57 CALM      30.07F
LEXINGTON      SUNNY     75  66  73 CALM      30.06F
$$

TNZ008-025-027-028-033-062-065-066-250100-
NORTH MIDDLE TENNESSEE

CITY           SKY/WX    TMP DP  RH WIND       PRES   REMARKS
NASHVILLE      PTCLDY    83  53  35 W5        30.09R
CLARKSVILLE    MOCLDY    78  59  51 S7        30.07R
SMYRNA         CLEAR     83  54  36 W8        30.09R
COOKEVILLE     PTCLDY    79  61  53 CALM      30.10S
CROSSVILLE     CLEAR     74  50  42 NW5       30.16R
$$

TNZ061-075-076-078-094-096-097-250100-
SOUTH MIDDLE TENNESSEE

CITY           SKY/WX    TMP DP  RH WIND       PRES   REMARKS
FAYETTEVILLE   CLEAR     81  55  41 S6        30.11R
TULLAHOMA      PTCLDY    79  52  38 SW3       30.12R
WINCHESTER     CLEAR     81  52  36 SW5       30.11R
MCMINNVILLE    PTCLDY    81  57  44 CALM      30.12R
COLUMBIA       CLEAR     81  64  57 CALM      30.08R
SHELBYVILLE    CLEAR     82  55  39 S5        30.11R
$$

TNZ017-018-042-046-047-250100-
NORTHEAST TENNESSEE

CITY           SKY/WX    TMP DP  RH WIND       PRES   REMARKS
TRI CITIES     PTCLDY    75  49  39 SW6       30.15R
$$

TNZ012-013-036-069-073-074-250100-
CENTRAL EAST TENNESSEE

CITY           SKY/WX    TMP DP  RH WIND       PRES   REMARKS
KNOXVILLE      NOT AVBL
OAK RIDGE      CLEAR     80  52  37 VRB5      30.12R
GATLINBURG     CLEAR     79  48  34 CALM      30.11S
$$

TNZ083-085-099-250100-
SOUTHEAST TENNESSEE

CITY           SKY/WX    TMP DP  RH WIND       PRES   REMARKS
CHATTANOOGA    PTCLDY    84  50  30 CALM      30.09S
$$

SKY/WX REPORTED AS FAIR MEANS FEW OR NO CLOUDS BELOW
12 THOUSAND FEET.





USA.gov is the U.S. government's official web portal to all federal, state and local government web resources and services.